Estación de Recoleta

Ultimos registro cada 15 minutos 87
Estación Fecha / Hora Temperatura Humedad Lluvia Velocidad Dirección Radiación Presion
87 Recoleta 03-05-2026 21:30 10,2 65,7 0 0 62 0,6 971,2
86 Recoleta 03-05-2026 21:15 11,8 59,2 0 0,3 86 0,6 971,2
85 Recoleta 03-05-2026 21:00 10,2 65,9 0 0 111 0,6 971,2
84 Recoleta 03-05-2026 20:45 10,5 64,6 0 0 111 0,6 971,2
83 Recoleta 03-05-2026 20:30 11 62,8 0 0 111 0,6 971
82 Recoleta 03-05-2026 20:15 12 59,1 0 0 111 0,6 970,9
81 Recoleta 03-05-2026 20:00 12,8 55,3 0 0 111 0,6 970,8
80 Recoleta 03-05-2026 19:45 15,3 46,5 0 0,3 119 0,6 970,7
79 Recoleta 03-05-2026 19:30 13,9 49,6 0 0 114 0,6 970,5
78 Recoleta 03-05-2026 19:15 14,7 47,2 0 0 112 0,6 970,4
77 Recoleta 03-05-2026 19:00 15,2 48,3 0 0 112 0,6 970,4
76 Recoleta 03-05-2026 18:45 17,4 40 0 0,3 135 0,6 970,2
75 Recoleta 03-05-2026 18:30 17,3 41,9 0 0 156 0,6 970,3
74 Recoleta 03-05-2026 18:15 19,3 37,3 0 0,3 185 1,9 970
73 Recoleta 03-05-2026 18:00 20 36,8 0 0,7 198 6,9 970
72 Recoleta 03-05-2026 17:45 20,1 37,9 0 0,3 194 10,6 970
71 Recoleta 03-05-2026 17:30 20,5 38,3 0 0,3 187 14,4 970
70 Recoleta 03-05-2026 17:15 22,1 35,9 0 0,7 140 50,6 969,8
69 Recoleta 03-05-2026 17:00 22,5 35,9 0 1 146 64,4 969,6
68 Recoleta 03-05-2026 16:45 23,1 36,4 0 1 136 129,4 969,6
67 Recoleta 03-05-2026 16:30 23,3 36,5 0 1 149 151,9 969,6
66 Recoleta 03-05-2026 16:15 23,6 36,4 0 1,3 166 24,4 969,7
65 Recoleta 03-05-2026 16:00 23,2 38,1 0 1,7 140 260,6 969,8
64 Recoleta 03-05-2026 15:45 23,2 38 0 2 138 303,1 969,7
63 Recoleta 03-05-2026 15:30 23,9 37,4 0 1,7 147 346,9 969,7
62 Recoleta 03-05-2026 15:15 24,8 36,6 0 1,7 146 388,1 969,6
61 Recoleta 03-05-2026 15:00 25,4 35,6 0 1,3 150 428,1 969,6
60 Recoleta 03-05-2026 14:45 24,8 36,9 0 1,7 138 465,6 969,5
59 Recoleta 03-05-2026 14:30 25,1 36,6 0 1,3 140 499,4 969,7
58 Recoleta 03-05-2026 14:15 24,9 37 0 2 139 529,4 969,8
57 Recoleta 03-05-2026 14:00 24,5 37,5 0 2 139 554,4 970,2
56 Recoleta 03-05-2026 13:45 24,7 35,7 0 2 140 585,6 970,1
55 Recoleta 03-05-2026 13:30 25,2 34,8 0 2 142 606,9 970,4
54 Recoleta 03-05-2026 13:15 25,4 33,4 0 1,7 138 623,1 970,6
53 Recoleta 03-05-2026 13:00 24,8 34,3 0 2 138 634,4 970,7
52 Recoleta 03-05-2026 12:45 24,3 33 0 2 135 649,4 970,6
51 Recoleta 03-05-2026 12:30 24,9 33,4 0 1,7 139 655,6 970,7
50 Recoleta 03-05-2026 12:15 25,1 31,9 0 1,3 143 658,1 970,8
49 Recoleta 03-05-2026 12:00 24,7 32,1 0 1,3 152 656,9 970,7
48 Recoleta 03-05-2026 11:45 24,7 31,3 0 1 140 653,1 970,7
47 Recoleta 03-05-2026 11:30 24,4 30,2 0 0,3 150 643,1 970,8
46 Recoleta 03-05-2026 11:15 23,9 30,5 0 0,3 121 629,4 970,9
45 Recoleta 03-05-2026 11:00 23,7 31 0 0,3 112 356,9 970,9
44 Recoleta 03-05-2026 10:45 23,5 30,1 0 0,3 104 556,9 970,9
43 Recoleta 03-05-2026 10:30 22,9 32,4 0 0,3 115 559,4 970,8
42 Recoleta 03-05-2026 10:15 21,2 35,7 0 0,3 115 529,4 970,9
41 Recoleta 03-05-2026 10:00 21,6 35,1 0 0 111 60,6 970,6
40 Recoleta 03-05-2026 09:45 21,1 38,2 0 0 111 41,9 970,5
39 Recoleta 03-05-2026 09:30 19,5 41,7 0 0 111 28,1 970,6
38 Recoleta 03-05-2026 09:15 18,5 45,1 0 0 111 384,4 970,4
37 Recoleta 03-05-2026 09:00 18,2 45,7 0 0 111 340,6 970,3
36 Recoleta 03-05-2026 08:45 16,1 53,2 0 0 111 294,4 970,1
35 Recoleta 03-05-2026 08:30 15 54,4 0 0 111 245,6 970,1
34 Recoleta 03-05-2026 08:15 13,1 62,2 0 0 111 196,9 970,2
33 Recoleta 03-05-2026 08:00 10,7 74,3 0 0 111 145,6 969,9
32 Recoleta 03-05-2026 07:45 8,1 79 0 0 111 14,4 969,8
31 Recoleta 03-05-2026 07:30 7,5 78,8 0 0 111 5,6 969,7
30 Recoleta 03-05-2026 07:15 7,6 78,7 0 0 111 1,9 969,6
29 Recoleta 03-05-2026 07:00 7,2 80,2 0 0 111 0,6 969,4
28 Recoleta 03-05-2026 06:45 7,7 78,9 0 0 111 0,6 969,4
27 Recoleta 03-05-2026 06:30 7,4 80,7 0 0 111 0,6 969,3
26 Recoleta 03-05-2026 06:15 7,7 80 0 0 111 0,6 969,3
25 Recoleta 03-05-2026 06:00 7,7 79,2 0 0 111 0,6 969,1
24 Recoleta 03-05-2026 05:45 7,6 78,9 0 0 111 0,6 968,9
23 Recoleta 03-05-2026 05:30 7,4 79,7 0 0 111 0,6 969,1
22 Recoleta 03-05-2026 05:15 7,4 80,9 0 0 111 0,6 969,1
21 Recoleta 03-05-2026 05:00 7,3 82,1 0 0 111 0,6 969
20 Recoleta 03-05-2026 04:45 7,3 81,8 0 0 111 0,6 968,9
19 Recoleta 03-05-2026 04:30 7,8 79,6 0 0 111 0,6 968,8
18 Recoleta 03-05-2026 04:15 8 79,8 0 0 111 0,6 968,8
17 Recoleta 03-05-2026 04:00 7,4 81,8 0 0 111 0,6 968,8
16 Recoleta 03-05-2026 03:45 7,8 80,8 0 0 111 0,6 968,9
15 Recoleta 03-05-2026 03:30 7,7 82,9 0 0 111 0,6 968,9
14 Recoleta 03-05-2026 03:15 7,5 82,3 0 0 111 0,6 969
13 Recoleta 03-05-2026 03:00 7,7 82 0 0 111 0,6 969,1
12 Recoleta 03-05-2026 02:45 8,1 80,4 0 0 111 0,6 969,1
11 Recoleta 03-05-2026 02:30 8,3 78,7 0 0 111 0,6 969,2
10 Recoleta 03-05-2026 02:15 8,8 78,1 0 0 111 0,6 969,2
9 Recoleta 03-05-2026 02:00 8,1 81,1 0 0 111 0,6 969,5
8 Recoleta 03-05-2026 01:45 8,5 81,6 0 0 111 0,6 969,6
7 Recoleta 03-05-2026 01:30 8,8 80,6 0 0 111 0,6 969,5
6 Recoleta 03-05-2026 01:15 8,7 79,7 0 0 111 0,6 969,4
5 Recoleta 03-05-2026 01:00 9 79,3 0 0 111 0,6 969,5
4 Recoleta 03-05-2026 00:45 9 79,8 0 0 111 0,6 969,7
3 Recoleta 03-05-2026 00:30 9,2 77,9 0 0 111 0,6 969,7
2 Recoleta 03-05-2026 00:15 10,1 74 0 0 111 0,6 970
1 Recoleta 03-05-2026 00:00 10,7 73,1 0 0 111 0,6 970